Weather History for Racine, WI

Change the Weather History Date:

Saturday, November 17, 2012

  Actual Average Record
Temperature  
Mean Temperature 38 °F -  
Max Temperature 48 °F 47 °F 71 °F (1953)
Min Temperature 27 °F 33 °F 1 °F (1959)
Degree Days  
Heating Degree Days 28    
Moisture  
Dew Point 31 °F    
Average Humidity 88    
Maximum Humidity 100    
Minimum Humidity 54    
Precipitation  
Precipitation 0.00 in - - ()
Sea Level Pressure  
Sea Level Pressure 30.51 in    
Wind  
Wind Speed 2 mph (South)    
Max Wind Speed 10 mph    
Max Gust Speed -    
Visibility 3 miles    
Events Fog    
Averages and records for this station are not official NWS values.
T = Trace of Precipitation, MM = Missing Value Source: NWS Daily Summary

Daily Weather History Graph

Daily Weather History Graph

Search for Another Location

Airport:

Trip Planner

Search our weather history database for the weather conditions in past years. The results will help you decide how hot, cold, wet, or windy it might be!

Date:

Astronomy

Nov. 17, 2012 Rise Set
Actual Time 6:46 AM CST 4:26 PM CST
Civil Twilight 6:15 AM CST 4:56 PM CST
Nautical Twilight 5:41 AM CST 5:31 PM CST
Astronomical Twilight 5:07 AM CST 6:04 PM CST
Moon 10:30 AM CST (11/17) 8:36 PM CST (11/17)
Length of Visible Light 10h 41m
Length of Day
9h 39m
Waxing Crescent, 20% of the Moon is Illuminated
Nov 17
Waxing Crescent
Nov 20
First Quarter
Nov 28
Full
Dec 6
Last Quarter
Dec 13
New

Hourly Weather History & Observations

Time (CST) Temp. Windchill Dew Point Humidity Pressure Visibility Wind Dir Wind Speed Gust Speed Precip Events Conditions
12:53 AM 33.1 °F - 32.0 °F 96% 30.52 in 4.0 mi Calm Calm - N/A   Mostly Cloudy
1:10 AM 32.0 °F - 30.2 °F 93% 30.49 in 2.0 mi Calm Calm - N/A   Mostly Cloudy
1:17 AM 32.0 °F 27.5 °F 30.2 °F 93% 30.49 in 3.0 mi SSE 4.6 mph - N/A   Scattered Clouds
1:53 AM 32.0 °F - 30.0 °F 92% 30.52 in 2.5 mi Calm Calm - N/A   Clear
1:57 AM 33.8 °F - 32.0 °F 93% 30.50 in 1.0 mi Calm Calm - N/A   Mist
2:04 AM 30.2 °F - 30.2 °F 100% 30.50 in 0.8 mi Calm Calm - N/A   Mist
2:08 AM 30.2 °F - 30.2 °F 100% 30.51 in 1.2 mi Calm Calm - N/A   Partly Cloudy
2:23 AM 30.2 °F 26.7 °F 28.4 °F 93% 30.51 in 0.8 mi SSW 3.5 mph - N/A   Mist
2:32 AM 30.2 °F - 30.2 °F 100% 30.51 in 1.0 mi Calm Calm - N/A   Mist
2:53 AM 30.0 °F - 28.9 °F 96% 30.53 in 0.8 mi Calm Calm - N/A   Mist
3:00 AM 30.2 °F - 28.4 °F 93% 30.51 in 2.0 mi Calm Calm - N/A   Overcast
3:17 AM 30.2 °F 26.7 °F 28.4 °F 93% 30.51 in 2.5 mi WSW 3.5 mph - N/A   Scattered Clouds
3:32 AM 30.2 °F - 28.4 °F 93% 30.51 in 1.0 mi Calm Calm - N/A   Mist
3:39 AM 28.4 °F - 28.4 °F 100% 30.51 in 0.2 mi Calm Calm - N/A Fog Light Freezing Fog
3:53 AM 28.9 °F - 28.9 °F 100% 30.53 in 0.5 mi Calm Calm - N/A Fog Light Freezing Fog
3:59 AM 30.2 °F - 28.4 °F 93% 30.51 in 1.2 mi Calm Calm - N/A   Scattered Clouds
4:06 AM 28.4 °F 24.6 °F 28.4 °F 100% 30.51 in 0.8 mi West 3.5 mph - N/A   Mist
4:30 AM 28.4 °F - 26.6 °F 93% 30.51 in 1.2 mi Calm Calm - N/A   Scattered Clouds
4:39 AM 28.4 °F 24.6 °F 26.6 °F 93% 30.51 in 3.0 mi WNW 3.5 mph - N/A   Partly Cloudy
4:53 AM 28.0 °F - 27.0 °F 96% 30.54 in 4.0 mi Calm Calm - N/A   Clear
5:53 AM 27.0 °F 23.0 °F 25.0 °F 92% 30.56 in 5.0 mi West 3.5 mph - N/A   Clear
6:53 AM 28.9 °F - 27.0 °F 92% 30.56 in 3.0 mi Calm Calm - N/A   Clear
7:03 AM 28.4 °F - 26.6 °F 93% 30.54 in 2.5 mi Calm Calm - N/A   Clear
7:29 AM 28.4 °F 24.6 °F 26.6 °F 93% 30.54 in 3.0 mi South 3.5 mph - N/A   Clear
7:53 AM 30.0 °F - 28.9 °F 96% 30.57 in 3.0 mi Calm Calm - N/A   Clear
8:53 AM 39.9 °F 36.7 °F 34.0 °F 79% 30.57 in 5.0 mi South 4.6 mph - N/A   Haze
9:53 AM 45.0 °F 41.2 °F 33.1 °F 63% 30.57 in 6.0 mi South 6.9 mph - N/A   Haze
10:53 AM 48.0 °F - 32.0 °F 54% 30.56 in 6.0 mi SSE 6.9 mph - N/A   Haze
11:53 AM 48.9 °F - 33.1 °F 54% 30.53 in 6.0 mi SSE 8.1 mph - N/A   Haze
12:53 PM 48.9 °F - 34.0 °F 56% 30.52 in 5.0 mi SSE 9.2 mph - N/A   Haze
1:53 PM 48.9 °F - 34.0 °F 56% 30.51 in 5.0 mi SSE 10.4 mph - N/A   Haze
2:53 PM 48.0 °F - 34.0 °F 58% 30.51 in 4.0 mi SSE 9.2 mph - N/A   Haze
3:53 PM 46.0 °F 41.9 °F 37.9 °F 73% 30.51 in 4.0 mi SSE 8.1 mph - N/A   Haze
4:53 PM 44.1 °F 39.5 °F 37.9 °F 79% 30.50 in 4.0 mi SSE 8.1 mph - N/A   Haze
5:53 PM 43.0 °F 40.3 °F 39.0 °F 86% 30.50 in 5.0 mi SSE 4.6 mph - N/A   Clear
6:53 PM 42.1 °F 40.2 °F 37.9 °F 85% 30.49 in 5.0 mi SSE 3.5 mph - N/A   Clear
7:53 PM 41.0 °F 39.0 °F 39.0 °F 93% 30.49 in 4.0 mi South 3.5 mph - N/A   Clear
8:53 PM 36.0 °F - 33.1 °F 89% 30.51 in 2.0 mi Calm Calm - N/A   Clear
9:06 PM 37.4 °F - 35.6 °F 93% 30.48 in 1.8 mi Calm Calm - N/A   Clear
9:13 PM 35.6 °F - 33.8 °F 93% 30.48 in 3.0 mi Calm Calm - N/A   Clear
9:32 PM 33.8 °F - 30.2 °F 87% 30.47 in 2.5 mi Calm Calm - N/A   Clear
9:53 PM 36.0 °F - 34.0 °F 93% 30.49 in 2.5 mi Calm Calm - N/A   Clear
10:53 PM 32.0 °F - 30.9 °F 96% 30.49 in 2.0 mi Calm Calm - N/A   Clear
11:39 PM 32.0 °F - 30.2 °F 93% 30.47 in 1.8 mi Calm Calm - N/A   Partly Cloudy
11:53 PM 32.0 °F 27.5 °F 30.9 °F 96% 30.48 in 1.5 mi South 4.6 mph - N/A   Partly Cloudy